Regional Weather Roundup
Issued by NWS Columbia, SC

Home | Current Version | Previous Version | Text Only | Print | Product List | Glossary On
Versions: 1 2 3 4 5 6 7 8 9 10 11 12 13 14 15 16 17 18 19 20 21 22 23 24 25 26 27 28 29 30 31 32 33 34 35 36 37 38 39 40 41 42 43 44 45 46 47 48 49 50
135
ASUS42 KCAE 120210
RWRCAE
REGIONAL WEATHER ROUNDUP
NATIONAL WEATHER SERVICE COLUMBIA SC
900 PM EST THU FEB 11 2016

NOTE: "FAIR" INDICATES FEW OR NO CLOUDS BELOW 12,000 FEET WITH NO
SIGNIFICANT WEATHER AND/OR OBSTRUCTIONS TO VISIBILITY.

NOT ALL STATIONS ARE QUALITY CONTROLLED BY THE NATIONAL
WEATHER SERVICE. USE DATA WITH CAUTION...ESPECIALLY
DEWPOINT OBSERVATIONS.

SCZ001>056-GAZ040-063>065-077-120300-
...UPSTATE SOUTH CAROLINA...

CITY           SKY/WX    TMP DP  RH WIND       PRES   REMARKS
ANDERSON       CLEAR     36  25  64 MISG      30.18R
LIBERTY        CLEAR     34  24  67 E6        30.17S WCI  29
SPARTANBURG    CLEAR     36  21  55 NE5       30.20S WCI  32
CLEMSON        CLEAR     46  23  40 NW5       30.18S
GREENVILLE     CLEAR     41  19  41 NE9       30.19R
GREENWOOD      CLEAR     36  26  67 CALM      30.20R
GREER          CLEAR     38  21  50 NE7       30.18S WCI  33
ROCK HILL      CLEAR     30  22  72 CALM      30.22R
LAURENS        CLEAR     37  27  65 CALM      30.19S


...CENTRAL SOUTH CAROLINA...

CITY           SKY/WX    TMP DP  RH WIND       PRES   REMARKS
COLUMBIA APT   CLEAR     41  28  60 CALM      30.21S
COLUMBIA OWENS CLEAR     40  29  64 CALM      30.22S
MCENTIRE ANGB  PTCLDY    38  26  61 E8        30.22S WCI  32
ORANGEBURG     MOCLDY    39  31  72 E5        30.21S
SUMTER SHAW    CLEAR     33  26  76 NE6       30.20S WCI  28
NEWBERRY       CLEAR     34  28  80 E3        30.23R
BARNWELL       MOCLDY    39  32  75 CALM      30.20F
MANNING        FAIR      34  28  80 CALM      30.23S
CAMDEN         FAIR      32  32 100 CALM      30.23S
LANCASTER      CLEAR     32  25  74 NE3       30.23R
WINNSBORO      CLEAR     37  27  65 E3        30.21R


...EASTERN AND COASTAL SOUTH CAROLINA...

CITY           SKY/WX    TMP DP  RH WIND       PRES   REMARKS
MYRTLE BEACH   CLEAR     39  27  60 CALM      30.28R
N MYRTLE BCH   CLEAR     34  31  88 CALM      30.27R
CONWAY         FAIR      32  30  93 CALM      30.27S
MARION         FAIR      34  28  80 E6        30.26S WCI  29
HARTSVILLE     FAIR      34  27  75 E5        30.23R WCI  30
FLORENCE       CLEAR     37  26  64 CALM      30.24S
DARLINGTON     CLEAR     34  25  69 NE3       30.26R
CHARLESTON APT CLEAR     42  32  67 CALM      30.24S
MOUNT PLEASANT FAIR      37  34  87 CALM      30.25S
WALTERBORO     CLEAR     43  34  70 CALM      30.23F
BEAUFORT       CLEAR     41  35  79 CALM      30.22S


...EASTERN GEORGIA...

CITY           SKY/WX    TMP DP  RH WIND       PRES   REMARKS
AUGUSTA BUSH F CLEAR     38  29  70 CALM      30.19S
AUGUSTA DANIEL CLEAR     48  25  40 E5        30.19S
THOMSON        CLEAR     39  34  80 CALM      30.23S
WASHINGTON     FAIR      41  34  75 CALM      30.17S
CLAXTON        FAIR      48  42  78 NE5       30.19S
SYLVANIA       PTCLDY    47  37  70 E3        30.20F
STATESBORO     CLEAR     50  32  50 CALM      30.20R
SAVANNAH       MOCLDY    47  39  74 E6        30.20S


...SOUTHERN NORTH CAROLINA...

CITY           SKY/WX    TMP DP  RH WIND       PRES   REMARKS
CHARLOTTE      CLEAR     39  16  39 NE3       30.22R
MONROE         CLEAR     33  20  58 NE5       30.22R WCI  29
WADESBORO      CLEAR     29  22  73 CALM      30.25R
ROCKINGHAM     CLEAR     32  21  63 E5        30.24S WCI  28
RUTHERFORDTON  CLEAR     33  18  54 CALM      30.21S
ASHEVILLE      CLEAR     30  18  60 N7        30.18S WCI  23

$$




USA.gov is the U.S. government's official web portal to all federal, state and local government web resources and services.